TimePDT,TemperatureF,Dew PointF,Humidity,Sea Level PressureIn,VisibilityMPH,Wind Direction,Wind SpeedMPH,Gust SpeedMPH,PrecipitationIn,Events,Conditions,WindDirDegrees,DateUTC
12:55 AM,43.0,30.9,62,30.13,10.0,East,4.6,-,N/A,,Clear,80,2013-05-14 07:55:00
1:55 AM,44.1,30.0,58,30.15,10.0,NNW,6.9,-,N/A,,Clear,330,2013-05-14 08:55:00
2:55 AM,46.0,30.0,54,30.15,10.0,NW,8.1,-,N/A,,Clear,320,2013-05-14 09:55:00
3:55 AM,46.0,32.0,58,30.16,10.0,NNW,10.4,-,N/A,,Clear,330,2013-05-14 10:55:00
4:55 AM,48.0,32.0,54,30.14,10.0,NW,13.8,-,N/A,,Clear,320,2013-05-14 11:55:00
5:55 AM,46.0,33.1,61,30.14,10.0,NW,12.7,-,N/A,,Clear,320,2013-05-14 12:55:00
6:55 AM,48.0,33.1,56,30.15,10.0,WNW,15.0,-,N/A,,Clear,300,2013-05-14 13:55:00
7:55 AM,48.9,32.0,52,30.15,10.0,NNW,6.9,-,N/A,,Clear,340,2013-05-14 14:55:00
8:55 AM,51.1,32.0,48,30.15,10.0,NW,9.2,-,N/A,,Clear,310,2013-05-14 15:55:00
9:55 AM,54.0,30.9,41,30.14,10.0,WNW,9.2,-,N/A,,Partly Cloudy,300,2013-05-14 16:55:00
10:55 AM,57.0,27.0,32,30.13,10.0,NW,8.1,-,N/A,,Clear,320,2013-05-14 17:55:00
11:55 AM,59.0,24.1,26,30.12,10.0,West,5.8,-,N/A,,Clear,280,2013-05-14 18:55:00
12:55 PM,62.1,27.0,26,30.10,10.0,NNW,4.6,-,N/A,,Clear,330,2013-05-14 19:55:00
1:55 PM,64.0,28.9,27,30.07,10.0,NNE,3.5,-,N/A,,Clear,30,2013-05-14 20:55:00
2:55 PM,64.9,28.9,26,30.06,10.0,Calm,Calm,-,N/A,,Clear,0,2013-05-14 21:55:00
3:55 PM,66.0,28.9,25,30.04,10.0,West,6.9,-,N/A,,Clear,280,2013-05-14 22:55:00
4:55 PM,68.0,28.9,23,30.02,10.0,Variable,3.5,-,N/A,,Clear,0,2013-05-14 23:55:00
5:55 PM,66.0,28.0,24,30.02,10.0,Variable,4.6,-,N/A,,Clear,0,2013-05-15 00:55:00
6:55 PM,66.0,26.1,22,30.02,10.0,WNW,16.1,-,N/A,,Clear,300,2013-05-15 01:55:00
7:55 PM,63.0,26.1,25,30.02,10.0,NW,16.1,-,N/A,,Clear,310,2013-05-15 02:55:00
8:55 PM,57.9,27.0,31,30.05,10.0,WNW,13.8,-,N/A,,Clear,300,2013-05-15 03:55:00
9:55 PM,57.0,28.0,33,30.06,10.0,NW,6.9,-,N/A,,Clear,320,2013-05-15 04:55:00
10:55 PM,55.0,28.9,37,30.06,10.0,NW,11.5,-,N/A,,Clear,310,2013-05-15 05:55:00
11:55 PM,54.0,30.9,41,30.06,10.0,WNW,10.4,-,N/A,,Clear,300,2013-05-15 06:55:00